TimeEDT,TemperatureF,Dew PointF,Humidity,Sea Level PressureIn,VisibilityMPH,Wind Direction,Wind SpeedMPH,Gust SpeedMPH,PrecipitationIn,Events,Conditions,WindDirDegrees,DateUTC
12:53 AM,43.0,28.0,56,30.03,10.0,WNW,10.4,23.0,N/A,,Overcast,300,2014-04-05 04:53:00
1:53 AM,42.1,27.0,55,30.05,10.0,West,13.8,29.9,N/A,,Overcast,280,2014-04-05 05:53:00
2:53 AM,41.0,27.0,57,30.07,10.0,WNW,15.0,25.3,N/A,,Overcast,300,2014-04-05 06:53:00
3:53 AM,39.9,25.0,55,30.09,10.0,NW,9.2,25.3,N/A,,Overcast,320,2014-04-05 07:53:00
4:53 AM,39.0,25.0,57,30.10,10.0,West,9.2,17.3,N/A,,Overcast,280,2014-04-05 08:53:00
5:53 AM,39.0,24.1,55,30.12,10.0,WNW,9.2,17.3,N/A,,Overcast,290,2014-04-05 09:53:00
6:53 AM,39.0,25.0,57,30.13,10.0,NW,10.4,-,N/A,,Overcast,320,2014-04-05 10:53:00
7:53 AM,39.0,26.1,60,30.16,10.0,NW,5.8,-,N/A,,Overcast,310,2014-04-05 11:53:00
8:53 AM,39.9,27.0,60,30.18,10.0,Variable,4.6,-,N/A,,Overcast,0,2014-04-05 12:53:00
9:53 AM,42.1,30.0,62,30.19,10.0,NNW,10.4,-,N/A,,Mostly Cloudy,340,2014-04-05 13:53:00
10:53 AM,42.1,27.0,55,30.21,10.0,North,11.5,16.1,N/A,,Scattered Clouds,350,2014-04-05 14:53:00
11:53 AM,43.0,28.0,56,30.22,10.0,North,-9999.0,-,N/A,,Scattered Clouds,0,2014-04-05 15:53:00
12:53 PM,46.0,28.9,51,30.21,10.0,NNW,6.9,-,N/A,,Scattered Clouds,330,2014-04-05 16:53:00
1:53 PM,48.9,32.0,52,30.20,10.0,North,9.2,-,N/A,,Clear,350,2014-04-05 17:53:00
2:53 PM,48.9,30.0,48,30.19,10.0,NNW,8.1,-,N/A,,Clear,330,2014-04-05 18:53:00
3:53 PM,51.1,30.0,44,30.18,10.0,North,6.9,-,N/A,,Partly Cloudy,360,2014-04-05 19:53:00
4:53 PM,52.0,30.0,43,30.17,10.0,North,6.9,-,N/A,,Partly Cloudy,350,2014-04-05 20:53:00
5:53 PM,51.1,28.9,43,30.17,10.0,Variable,4.6,-,N/A,,Clear,0,2014-04-05 21:53:00
6:53 PM,51.1,28.0,41,30.17,10.0,Calm,Calm,-,N/A,,Clear,0,2014-04-05 22:53:00
7:53 PM,48.9,28.0,44,30.19,10.0,NNE,4.6,-,N/A,,Clear,20,2014-04-05 23:53:00
8:53 PM,46.0,30.9,56,30.19,10.0,Calm,Calm,-,N/A,,Clear,0,2014-04-06 00:53:00
9:53 PM,43.0,33.1,68,30.20,10.0,Calm,Calm,-,N/A,,Clear,0,2014-04-06 01:53:00
10:53 PM,39.9,34.0,79,30.20,10.0,ENE,3.5,-,N/A,,Clear,60,2014-04-06 02:53:00
11:53 PM,39.0,33.1,79,30.21,10.0,Calm,Calm,-,N/A,,Clear,0,2014-04-06 03:53:00